| time (UTC) | temp F | wind direction | speed MPH | gust MPH | rain 1hr in | rain 24hr in | rain mn in | humidity % | barometer mb |
| 20260901110637 | 70 | 273 | 4.0 | 12.0 | 0.00 | 0.12 | 0.00 | 61 | 1019.3 |
| 20260901110115 | 71 | 302 | 5.0 | 12.0 | 0.00 | 0.12 | 0.00 | 60 | 1019.2 |
| 20260901105614 | 72 | 220 | 3.0 | 10.0 | 0.00 | 0.12 | 0.00 | 58 | 1019.2 |
| 20260901105111 | 72 | 285 | 5.0 | 9.0 | 0.00 | 0.12 | 0.00 | 62 | 1019.2 |
| 20260901104628 | 72 | 309 | 1.0 | 9.0 | 0.00 | 0.12 | 0.00 | 62 | 1019.2 |
| 20260901104134 | 73 | 295 | 4.0 | 9.0 | 0.00 | 0.12 | 0.00 | 58 | 1019.2 |
| 20260901103617 | 72 | 200 | 1.0 | 11.0 | 0.00 | 0.12 | 0.00 | 65 | 1019.2 |
| 20260901103117 | 71 | 254 | 3.0 | 7.0 | 0.00 | 0.12 | 0.00 | 64 | 1019.2 |
| 20260901102630 | 70 | 200 | 2.0 | 8.0 | 0.00 | 0.12 | 0.00 | 65 | 1019.2 |
| 20260901102110 | 70 | 355 | 4.0 | 13.0 | 0.00 | 0.12 | 0.00 | 66 | 1019.2 |
| 20260901101633 | 70 | 306 | 3.0 | 13.0 | 0.00 | 0.12 | 0.00 | 65 | 1019.1 |
| 20260901101110 | 70 | 328 | 3.0 | 8.0 | 0.00 | 0.12 | 0.00 | 65 | 1019.1 |
| 20260901100632 | 70 | 320 | 3.0 | 10.0 | 0.00 | 0.12 | 0.00 | 64 | 1019.1 |
| 20260901100117 | 71 | 260 | 4.0 | 10.0 | 0.00 | 0.12 | 0.00 | 64 | 1019.2 |
| 20260901095645 | 70 | 178 | 3.0 | 11.0 | 0.00 | 0.12 | 0.00 | 64 | 1019.1 |
| 20260901095105 | 70 | 244 | 4.0 | 11.0 | 0.00 | 0.12 | 0.00 | 67 | 1019.1 |
| 20260901094625 | 71 | 212 | 2.0 | 7.0 | 0.00 | 0.12 | 0.00 | 67 | 1019.0 |
| 20260901094159 | 70 | 180 | 2.0 | 8.0 | 0.00 | 0.12 | 0.00 | 67 | 1019.0 |
| 20260901093618 | 69 | 16 | 3.0 | 8.0 | 0.00 | 0.12 | 0.00 | 68 | 1019.1 |
| 20260901093107 | 69 | 202 | 3.0 | 6.0 | 0.00 | 0.12 | 0.00 | 68 | 1019.0 |
| 20260901092614 | 68 | 271 | 1.0 | 10.0 | 0.00 | 0.12 | 0.00 | 72 | 1018.9 |
| 20260901092113 | 67 | 236 | 2.0 | 10.0 | 0.00 | 0.12 | 0.00 | 70 | 1018.9 |
| 20260901091610 | 67 | 295 | 3.0 | 7.0 | 0.00 | 0.12 | 0.00 | 72 | 1018.9 |
| 20260901091115 | 68 | 251 | 2.0 | 8.0 | 0.00 | 0.12 | 0.00 | 73 | 1018.9 |
| 20260901090626 | 67 | 235 | 3.0 | 8.0 | 0.00 | 0.12 | 0.00 | 71 | 1018.8 |
| 20260901090113 | 67 | 273 | 4.0 | 7.0 | 0.00 | 0.12 | 0.00 | 73 | 1018.9 |
| 20260901085632 | 66 | 13 | 2.0 | 9.0 | 0.00 | 0.12 | 0.00 | 74 | 1018.8 |
| 20260901085139 | 66 | 232 | 3.0 | 9.0 | 0.00 | 0.12 | 0.00 | 76 | 1018.8 |
| 20260901084637 | 65 | 313 | 4.0 | 8.0 | 0.00 | 0.12 | 0.00 | 75 | 1018.8 |
| 20260901084114 | 65 | 250 | 2.0 | 10.0 | 0.00 | 0.12 | 0.00 | 76 | 1018.7 |
| 20260901083635 | 65 | 315 | 3.0 | 10.0 | 0.00 | 0.12 | 0.00 | 77 | 1018.7 |
| 20260901083135 | 65 | 294 | 3.0 | 7.0 | 0.00 | 0.12 | 0.00 | 78 | 1018.6 |
| 20260901082620 | 65 | 282 | 3.0 | 8.0 | 0.00 | 0.12 | 0.00 | 80 | 1018.6 |
| 20260901082126 | 65 | 274 | 2.0 | 8.0 | 0.00 | 0.12 | 0.00 | 81 | 1018.6 |
| 20260901081640 | 65 | 234 | 2.0 | 9.0 | 0.00 | 0.12 | 0.00 | 81 | 1018.5 |
| 20260901081116 | 64 | 299 | 3.0 | 8.0 | 0.00 | 0.12 | 0.00 | 80 | 1018.5 |
| 20260901080633 | 64 | 246 | 2.0 | 8.0 | 0.00 | 0.12 | 0.00 | 82 | 1018.4 |
| 20260901080143 | 63 | 244 | 2.0 | 9.0 | 0.00 | 0.12 | 0.00 | 83 | 1018.4 |
| 20260901075629 | 64 | 36 | 2.0 | 9.0 | 0.00 | 0.12 | 0.00 | 82 | 1018.4 |
| 20260901075117 | 63 | 328 | 3.0 | 9.0 | 0.00 | 0.12 | 0.00 | 84 | 1018.3 |
| 20260901074618 | 63 | 279 | 2.0 | 6.0 | 0.00 | 0.12 | 0.00 | 83 | 1018.2 |
| 20260901074130 | 63 | 336 | 3.0 | 5.0 | 0.00 | 0.12 | 0.00 | 84 | 1018.1 |
| 20260901073645 | 63 | 273 | 1.0 | 6.0 | 0.00 | 0.12 | 0.00 | 86 | 1018.1 |
| 20260901073122 | 63 | 294 | 2.0 | 6.0 | 0.00 | 0.12 | 0.00 | 87 | 1018.1 |
| 20260901072612 | 63 | 261 | 1.0 | 7.0 | 0.00 | 0.12 | 0.00 | 87 | 1018.0 |
| 20260901072122 | 62 | 254 | 1.0 | 3.0 | 0.00 | 0.12 | 0.00 | 88 | 1018.0 |
| 20260901071617 | 62 | 295 | 1.0 | 3.0 | 0.00 | 0.12 | 0.00 | 89 | 1018.0 |
| 20260901071200 | 62 | 287 | 2.0 | 4.0 | 0.00 | 0.12 | 0.00 | 89 | 1017.9 |
| 20260901070624 | 62 | 223 | 1.0 | 6.0 | 0.00 | 0.12 | 0.00 | 90 | 1017.9 |
| 20260901070124 | 62 | 267 | 1.0 | 6.0 | 0.00 | 0.12 | 0.00 | 91 | 1017.8 |
| 20260901065621 | 62 | 275 | 1.0 | 5.0 | 0.00 | 0.16 | 0.00 | 92 | 1017.7 |
| 20260901065106 | 62 | 254 | 1.0 | 4.0 | 0.00 | 0.16 | 0.00 | 93 | 1017.7 |
| 20260901064609 | 61 | 255 | 1.0 | 4.0 | 0.00 | 0.16 | 0.00 | 94 | 1017.7 |
| 20260901064108 | 61 | 263 | 1.0 | 3.0 | 0.00 | 0.16 | 0.00 | 94 | 1017.6 |
| 20260901063624 | 61 | 262 | 0.0 | 6.0 | 0.00 | 0.16 | 0.00 | 94 | 1017.7 |
| 20260901063135 | 61 | 281 | 0.0 | 6.0 | 0.00 | 0.16 | 0.00 | 94 | 1017.7 |
| 20260901062625 | 61 | 183 | 1.0 | 4.0 | 0.00 | 0.16 | 0.00 | 95 | 1017.6 |
| 20260901062143 | 61 | 215 | 0.0 | 2.0 | 0.00 | 0.16 | 0.00 | 95 | 1017.6 |
| 20260901061634 | 61 | 246 | 1.0 | 2.0 | 0.00 | 0.16 | 0.00 | 95 | 1017.5 |
| 20260901061109 | 61 | 165 | 1.0 | 2.0 | 0.00 | 0.16 | 0.00 | 95 | 1017.5 |
| 20260901060625 | 61 | 225 | 0.0 | 3.0 | 0.00 | 0.16 | 0.00 | 95 | 1017.5 |
| 20260901060105 | 61 | 225 | 1.0 | 3.0 | 0.00 | 0.16 | 0.00 | 95 | 1017.4 |
| 20260901055627 | 61 | 225 | 1.0 | 4.0 | 0.00 | 0.31 | 0.00 | 95 | 1017.3 |
| 20260901055110 | 61 | 202 | 1.0 | 4.0 | 0.00 | 0.31 | 0.00 | 95 | 1017.3 |
| 20260901054641 | 61 | 227 | 1.0 | 3.0 | 0.00 | 0.31 | 0.00 | 95 | 1017.3 |
| 20260901054150 | 61 | 215 | 1.0 | 4.0 | 0.00 | 0.31 | 0.00 | 95 | 1017.3 |
| 20260901053613 | 61 | 211 | 2.0 | 4.0 | 0.00 | 0.31 | 0.00 | 95 | 1017.3 |
| 20260901053114 | 61 | 211 | 2.0 | 3.0 | 0.00 | 0.31 | 0.00 | 95 | 1017.2 |
| 20260901052621 | 60 | 193 | 1.0 | 3.0 | 0.00 | 0.31 | 0.00 | 95 | 1017.1 |
| 20260901052121 | 60 | 208 | 1.0 | 3.0 | 0.00 | 0.31 | 0.00 | 95 | 1017.0 |
| 20260901051628 | 60 | 208 | 2.0 | 3.0 | 0.00 | 0.31 | 0.00 | 95 | 1017.0 |
| 20260901051111 | 60 | 228 | 1.0 | 3.0 | 0.00 | 0.31 | 0.00 | 95 | 1016.8 |
| 20260901050612 | 60 | 228 | 1.0 | 3.0 | 0.00 | 0.31 | 0.00 | 95 | 1016.8 |
| 20260901050125 | 60 | 209 | 1.0 | 3.0 | 0.00 | 0.31 | 0.00 | 95 | 1016.8 |
| 20260901045626 | 60 | 209 | 1.0 | 3.0 | 0.00 | 0.31 | 0.00 | 95 | 1016.8 |
| 20260901045118 | 60 | 209 | 1.0 | 2.0 | 0.00 | 0.31 | 0.00 | 95 | 1016.9 |
| 20260901044627 | 60 | 209 | 1.0 | 3.0 | 0.00 | 0.31 | 0.00 | 96 | 1016.9 |
| 20260901044106 | 60 | 209 | 1.0 | 3.0 | 0.00 | 0.31 | 0.00 | 96 | 1016.9 |
| 20260901043614 | 60 | 209 | 1.0 | 3.0 | 0.00 | 0.31 | 0.00 | 96 | 1016.8 |
| 20260901043141 | 59 | 209 | 1.0 | 3.0 | 0.00 | 0.31 | 0.00 | 96 | 1016.7 |
| 20260901042640 | 59 | 209 | 1.0 | 2.0 | 0.00 | 0.31 | 0.00 | 96 | 1016.6 |
| 20260901042112 | 59 | 209 | 0.0 | 3.0 | 0.00 | 0.31 | 0.00 | 95 | 1016.6 |
| 20260901041619 | 59 | 209 | 1.0 | 2.0 | 0.00 | 0.31 | 0.00 | 95 | 1016.6 |
| 20260901041134 | 59 | 209 | 1.0 | 2.0 | 0.00 | 0.31 | 0.00 | 95 | 1016.4 |
| 20260901040612 | 60 | 209 | 0.0 | 2.0 | 0.00 | 0.31 | 0.00 | 96 | 1016.3 |
| 20260901040125 | 60 | 209 | 0.0 | 3.0 | 0.00 | 0.31 | 0.00 | 95 | 1016.4 |
| 20260901035640 | 60 | 209 | 1.0 | 3.0 | 0.00 | 0.31 | 0.00 | 95 | 1016.5 |
| 20260901035122 | 59 | 178 | 1.0 | 2.0 | 0.00 | 0.31 | 0.00 | 95 | 1016.5 |
| 20260901034619 | 59 | 178 | 0.0 | 2.0 | 0.00 | 0.31 | 0.00 | 96 | 1016.4 |
| 20260901034150 | 59 | 231 | 1.0 | 2.0 | 0.00 | 0.31 | 0.00 | 95 | 1016.5 |
| 20260901033631 | 59 | 231 | 1.0 | 2.0 | 0.00 | 0.31 | 0.00 | 95 | 1016.5 |
| 20260901033105 | 59 | 231 | 1.0 | 2.0 | 0.00 | 0.31 | 0.00 | 95 | 1016.5 |
| 20260901032631 | 59 | 231 | 1.0 | 2.0 | 0.00 | 0.31 | 0.00 | 95 | 1016.4 |
| 20260901032106 | 59 | 231 | 1.0 | 2.0 | 0.00 | 0.31 | 0.00 | 95 | 1016.4 |
| 20260901031631 | 59 | 231 | 0.0 | 3.0 | 0.00 | 0.31 | 0.00 | 95 | 1016.4 |
| 20260901031155 | 59 | 231 | 1.0 | 3.0 | 0.00 | 0.31 | 0.00 | 95 | 1016.4 |
| 20260901030626 | 59 | 231 | 1.0 | 2.0 | 0.00 | 0.31 | 0.00 | 95 | 1016.4 |
| 20260901030116 | 59 | 231 | 0.0 | 1.0 | 0.00 | 0.31 | 0.00 | 95 | 1016.4 |
| 20260901025610 | 59 | 231 | 0.0 | 1.0 | 0.00 | 0.31 | 0.00 | 95 | 1016.4 |
| 20260901025125 | 59 | 231 | 0.0 | 1.0 | 0.00 | 0.31 | 0.00 | 94 | 1016.3 |
| 20260901024632 | 59 | 231 | 0.0 | 1.0 | 0.00 | 0.31 | 0.00 | 94 | 1016.2 |
| 20260901024111 | 59 | 231 | 0.0 | 2.0 | 0.00 | 0.31 | 0.00 | 94 | 1016.1 |
| 20260901023640 | 59 | 231 | 0.0 | 3.0 | 0.00 | 0.31 | 0.00 | 94 | 1016.1 |
| 20260901023114 | 60 | 231 | 1.0 | 3.0 | 0.00 | 0.31 | 0.00 | 95 | 1016.1 |
| 20260901022618 | 59 | 203 | 1.0 | 2.0 | 0.00 | 0.31 | 0.00 | 95 | 1016.2 |
| 20260901022108 | 60 | 203 | 1.0 | 2.0 | 0.00 | 0.31 | 0.00 | 94 | 1016.1 |
| 20260901021616 | 60 | 203 | 1.0 | 3.0 | 0.00 | 0.31 | 0.00 | 94 | 1016.2 |
| 20260901021108 | 60 | 203 | 1.0 | 3.0 | 0.00 | 0.31 | 0.00 | 94 | 1016.2 |
| 20260901020625 | 60 | 212 | 1.0 | 3.0 | 0.00 | 0.31 | 0.00 | 94 | 1016.2 |
| 20260901020146 | 60 | 212 | 1.0 | 2.0 | 0.00 | 0.31 | 0.00 | 94 | 1016.2 |
| 20260901015641 | 60 | 212 | 1.0 | 3.0 | 0.00 | 0.31 | 0.00 | 94 | 1016.2 |
| 20260901015124 | 60 | 202 | 1.0 | 4.0 | 0.00 | 0.31 | 0.00 | 94 | 1016.2 |
| 20260901014612 | 60 | 200 | 2.0 | 3.0 | 0.00 | 0.31 | 0.00 | 94 | 1016.1 |
| 20260901014123 | 60 | 200 | 1.0 | 3.0 | 0.00 | 0.31 | 0.00 | 94 | 1016.1 |
| 20260901013638 | 59 | 200 | 1.0 | 2.0 | 0.00 | 0.31 | 0.00 | 94 | 1016.1 |
| 20260901013113 | 59 | 200 | 1.0 | 2.0 | 0.00 | 0.31 | 0.00 | 94 | 1016.0 |
| 20260901012650 | 59 | 200 | 1.0 | 2.0 | 0.00 | 0.31 | 0.00 | 94 | 1016.0 |
| 20260901012108 | 59 | 200 | 1.0 | 3.0 | 0.00 | 0.31 | 0.00 | 94 | 1016.0 |
| 20260901011618 | 59 | 200 | 1.0 | 3.0 | 0.00 | 0.31 | 0.00 | 94 | 1016.0 |
| 20260901011110 | 59 | 200 | 1.0 | 3.0 | 0.00 | 0.31 | 0.00 | 94 | 1016.0 |
| 20260901010644 | 59 | 200 | 1.0 | 2.0 | 0.00 | 0.31 | 0.00 | 94 | 1016.0 |
| 20260901010136 | 59 | 200 | 1.0 | 2.0 | 0.00 | 0.31 | 0.00 | 94 | 1016.0 |
| 20260901005638 | 59 | 200 | 0.0 | 3.0 | 0.00 | 0.31 | 0.00 | 94 | 1015.9 |
| 20260901005132 | 59 | 200 | 1.0 | 3.0 | 0.00 | 0.31 | 0.00 | 94 | 1016.0 |
| 20260901004616 | 59 | 219 | 2.0 | 4.0 | 0.00 | 0.31 | 0.00 | 94 | 1016.0 |
| 20260901004154 | 59 | 206 | 2.0 | 4.0 | 0.00 | 0.31 | 0.00 | 94 | 1016.0 |
| 20260901003613 | 59 | 220 | 2.0 | 4.0 | 0.00 | 0.31 | 0.00 | 94 | 1015.9 |
| 20260901003123 | 59 | 225 | 2.0 | 4.0 | 0.00 | 0.31 | 0.00 | 93 | 1015.9 |
| 20260901002631 | 59 | 225 | 1.0 | 3.0 | 0.00 | 0.31 | 0.00 | 93 | 1015.8 |
| 20260901002140 | 59 | 225 | 1.0 | 3.0 | 0.00 | 0.31 | 0.00 | 93 | 1015.9 |
| 20260901001658 | 59 | 225 | 1.0 | 4.0 | 0.00 | 0.31 | 0.00 | 93 | 1015.8 |
| 20260901001110 | 59 | 205 | 2.0 | 4.0 | 0.00 | 0.31 | 0.00 | 93 | 1015.8 |
| 20260901000626 | 59 | 215 | 1.0 | 3.0 | 0.00 | 0.31 | 0.00 | 93 | 1015.8 |
| 20260901000107 | 59 | 206 | 1.0 | 3.0 | 0.00 | 0.31 | 0.00 | 93 | 1015.8 |
| 20260831235623 | 59 | 223 | 2.0 | 4.0 | 0.00 | 0.31 | 0.00 | 93 | 1015.7 |
| 20260831235115 | 59 | 219 | 2.0 | 4.0 | 0.00 | 0.31 | 0.00 | 93 | 1015.8 |
| 20260831234638 | 59 | 206 | 1.0 | 4.0 | 0.00 | 0.31 | 0.00 | 93 | 1015.8 |
| 20260831234110 | 59 | 214 | 2.0 | 4.0 | 0.00 | 0.31 | 0.00 | 93 | 1015.7 |
| 20260831233651 | 59 | 211 | 2.0 | 4.0 | 0.00 | 0.31 | 0.00 | 93 | 1015.7 |
| 20260831233116 | 59 | 204 | 3.0 | 5.0 | 0.00 | 0.31 | 0.00 | 93 | 1015.6 |
| 20260831232635 | 59 | 215 | 2.0 | 5.0 | 0.00 | 0.31 | 0.00 | 93 | 1015.6 |
| 20260831232120 | 59 | 234 | 1.0 | 4.0 | 0.00 | 0.31 | 0.00 | 93 | 1015.5 |
| 20260831231636 | 59 | 216 | 2.0 | 4.0 | 0.00 | 0.31 | 0.00 | 93 | 1015.5 |
| 20260831231106 | 59 | 193 | 1.0 | 3.0 | 0.00 | 0.31 | 0.00 | 93 | 1015.5 |
| 20260831230623 | 59 | 182 | 1.0 | 3.0 | 0.00 | 0.31 | 0.00 | 93 | 1015.5 |
| 20260831230127 | 59 | 217 | 1.0 | 4.0 | 0.00 | 0.31 | 0.00 | 93 | 1015.4 |
| 20260831225612 | 60 | 217 | 1.0 | 4.0 | 0.00 | 0.31 | 0.00 | 93 | 1015.5 |
| 20260831225105 | 60 | 214 | 1.0 | 4.0 | 0.04 | 0.31 | 0.00 | 93 | 1015.5 |
| 20260831224633 | 60 | 213 | 1.0 | 5.0 | 0.08 | 0.31 | 0.00 | 93 | 1015.4 |
| 20260831224142 | 60 | 205 | 2.0 | 5.0 | 0.08 | 0.31 | 0.00 | 93 | 1015.4 |
| 20260831223625 | 60 | 275 | 1.0 | 2.0 | 0.08 | 0.31 | 0.00 | 93 | 1015.3 |
| 20260831223116 | 60 | 275 | 0.0 | 1.0 | 0.08 | 0.31 | 0.00 | 92 | 1015.2 |
| 20260831222629 | 60 | 275 | 0.0 | 1.0 | 0.08 | 0.31 | 0.00 | 92 | 1015.1 |
| 20260831222139 | 61 | 275 | 0.0 | 0.0 | 0.08 | 0.31 | 0.00 | 91 | 1015.1 |
| 20260831221621 | 61 | 275 | 0.0 | 0.0 | 0.08 | 0.31 | 0.00 | 91 | 1015.2 |
| 20260831221130 | 61 | 275 | 0.0 | 1.0 | 0.08 | 0.31 | 0.00 | 90 | 1015.1 |
| 20260831220606 | 61 | 275 | 0.0 | 2.0 | 0.08 | 0.31 | 0.00 | 90 | 1015.1 |
| 20260831220145 | 62 | 275 | 0.0 | 2.0 | 0.08 | 0.31 | 0.00 | 89 | 1015.2 |
| 20260831215638 | 62 | 275 | 1.0 | 7.0 | 0.04 | 0.28 | 0.06 | 88 | 1015.3 |
| 20260831215120 | 63 | 287 | 1.0 | 10.0 | 0.04 | 0.28 | 0.06 | 87 | 1015.4 |
| 20260831214614 | 64 | 299 | 4.0 | 12.0 | 0.00 | 0.24 | 0.05 | 87 | 1015.6 |
| 20260831214137 | 64 | 226 | 3.0 | 11.0 | 0.00 | 0.24 | 0.05 | 88 | 1015.3 |
| 20260831213620 | 64 | 230 | 1.0 | 4.0 | 0.00 | 0.24 | 0.05 | 88 | 1015.0 |
| 20260831213125 | 64 | 244 | 0.0 | 5.0 | 0.00 | 0.24 | 0.05 | 87 | 1015.0 |
| 20260831212630 | 64 | 219 | 3.0 | 5.0 | 0.00 | 0.24 | 0.05 | 87 | 1014.9 |
| 20260831212126 | 64 | 221 | 2.0 | 6.0 | 0.00 | 0.24 | 0.05 | 87 | 1014.9 |
| 20260831211615 | 64 | 224 | 3.0 | 7.0 | 0.00 | 0.24 | 0.05 | 87 | 1014.8 |
| 20260831211144 | 64 | 206 | 3.0 | 7.0 | 0.00 | 0.24 | 0.05 | 86 | 1014.8 |
| 20260831210633 | 64 | 227 | 1.0 | 6.0 | 0.00 | 0.24 | 0.05 | 85 | 1014.8 |
| 20260831210125 | 64 | 228 | 2.0 | 6.0 | 0.00 | 0.24 | 0.05 | 85 | 1014.7 |
| 20260831205608 | 64 | 202 | 1.0 | 5.0 | 0.00 | 0.24 | 0.05 | 84 | 1014.6 |
| 20260831205131 | 65 | 208 | 3.0 | 8.0 | 0.00 | 0.24 | 0.05 | 83 | 1014.6 |
| 20260831204615 | 65 | 209 | 4.0 | 8.0 | 0.00 | 0.24 | 0.05 | 83 | 1014.6 |
| 20260831204110 | 65 | 234 | 4.0 | 7.0 | 0.00 | 0.24 | 0.05 | 82 | 1014.5 |
| 20260831203634 | 65 | 218 | 3.0 | 6.0 | 0.00 | 0.24 | 0.05 | 82 | 1014.5 |
| 20260831203128 | 65 | 195 | 2.0 | 7.0 | 0.00 | 0.24 | 0.05 | 82 | 1014.5 |
| 20260831202632 | 65 | 234 | 4.0 | 7.0 | 0.00 | 0.24 | 0.05 | 83 | 1014.5 |
| 20260831202133 | 64 | 172 | 2.0 | 6.0 | 0.00 | 0.24 | 0.05 | 83 | 1014.5 |
| 20260831201609 | 64 | 238 | 3.0 | 6.0 | 0.00 | 0.24 | 0.05 | 83 | 1014.5 |
| 20260831201115 | 64 | 182 | 2.0 | 7.0 | 0.00 | 0.24 | 0.05 | 82 | 1014.4 |
| 20260831200616 | 64 | 200 | 2.0 | 7.0 | 0.00 | 0.24 | 0.05 | 82 | 1014.3 |
| 20260831200113 | 64 | 199 | 3.0 | 6.0 | 0.00 | 0.24 | 0.05 | 82 | 1014.3 |
| 20260831195616 | 64 | 206 | 3.0 | 6.0 | 0.00 | 0.24 | 0.05 | 82 | 1014.3 |
| 20260831195106 | 64 | 224 | 2.0 | 4.0 | 0.00 | 0.24 | 0.05 | 82 | 1014.2 |
| 20260831194617 | 63 | 246 | 1.0 | 3.0 | 0.00 | 0.24 | 0.05 | 82 | 1014.2 |
| 20260831194107 | 64 | 139 | 2.0 | 7.0 | 0.00 | 0.24 | 0.05 | 81 | 1014.2 |
| 20260831193641 | 64 | 205 | 2.0 | 7.0 | 0.00 | 0.24 | 0.05 | 81 | 1014.1 |
| 20260831193122 | 64 | 244 | 3.0 | 7.0 | 0.00 | 0.24 | 0.05 | 81 | 1014.1 |
| 20260831192620 | 64 | 221 | 4.0 | 7.0 | 0.00 | 0.24 | 0.05 | 81 | 1014.0 |
| 20260831192135 | 64 | 240 | 3.0 | 6.0 | 0.00 | 0.24 | 0.05 | 81 | 1014.0 |
| 20260831191614 | 64 | 204 | 2.0 | 6.0 | 0.00 | 0.24 | 0.05 | 81 | 1013.9 |
| 20260831191114 | 64 | 263 | 2.0 | 4.0 | 0.00 | 0.24 | 0.05 | 81 | 1013.9 |
| 20260831190627 | 64 | 224 | 1.0 | 4.0 | 0.00 | 0.24 | 0.05 | 81 | 1013.9 |
| 20260831190129 | 64 | 206 | 2.0 | 4.0 | 0.00 | 0.24 | 0.05 | 80 | 1013.8 |
| 20260831185614 | 64 | 230 | 1.0 | 5.0 | 0.00 | 0.24 | 0.05 | 80 | 1013.8 |
| 20260831185143 | 64 | 237 | 1.0 | 5.0 | 0.00 | 0.24 | 0.05 | 80 | 1013.7 |
| 20260831184610 | 64 | 211 | 1.0 | 7.0 | 0.00 | 0.24 | 0.05 | 80 | 1013.6 |
| 20260831184138 | 65 | 217 | 3.0 | 7.0 | 0.00 | 0.24 | 0.05 | 79 | 1013.5 |
| 20260831183640 | 65 | 216 | 2.0 | 4.0 | 0.00 | 0.24 | 0.05 | 79 | 1013.3 |
| 20260831183108 | 65 | 187 | 1.0 | 4.0 | 0.00 | 0.24 | 0.05 | 79 | 1013.2 |
| 20260831182616 | 65 | 205 | 2.0 | 7.0 | 0.00 | 0.24 | 0.05 | 78 | 1013.2 |
| 20260831182106 | 66 | 252 | 2.0 | 7.0 | 0.00 | 0.24 | 0.05 | 77 | 1013.1 |
| 20260831181628 | 66 | 219 | 2.0 | 7.0 | 0.00 | 0.24 | 0.05 | 78 | 1013.0 |
| 20260831181133 | 66 | 290 | 1.0 | 7.0 | 0.00 | 0.24 | 0.05 | 78 | 1013.0 |
| 20260831180625 | 66 | 273 | 2.0 | 7.0 | 0.00 | 0.24 | 0.05 | 77 | 1012.9 |
| 20260831180135 | 66 | 226 | 2.0 | 8.0 | 0.00 | 0.24 | 0.05 | 77 | 1012.9 |
| 20260831175642 | 66 | 243 | 2.0 | 9.0 | 0.00 | 0.24 | 0.05 | 77 | 1012.8 |
| 20260831175117 | 66 | 314 | 3.0 | 6.0 | 0.00 | 0.24 | 0.05 | 77 | 1012.7 |
| 20260831174628 | 66 | 229 | 2.0 | 9.0 | 0.00 | 0.24 | 0.05 | 77 | 1012.7 |
| 20260831174107 | 66 | 181 | 3.0 | 9.0 | 0.00 | 0.24 | 0.05 | 76 | 1012.6 |
| 20260831173626 | 67 | 219 | 3.0 | 9.0 | 0.00 | 0.24 | 0.05 | 76 | 1012.5 |
| 20260831173131 | 67 | 211 | 3.0 | 11.0 | 0.00 | 0.24 | 0.05 | 75 | 1012.5 |
| 20260831172612 | 67 | 171 | 3.0 | 13.0 | 0.00 | 0.24 | 0.05 | 74 | 1012.4 |
| 20260831172112 | 67 | 252 | 4.0 | 12.0 | 0.00 | 0.24 | 0.05 | 74 | 1012.3 |
| 20260831171638 | 67 | 208 | 2.0 | 9.0 | 0.00 | 0.24 | 0.05 | 75 | 1012.3 |
| 20260831171131 | 67 | 246 | 5.0 | 9.0 | 0.00 | 0.24 | 0.05 | 75 | 1012.2 |
| 20260831170616 | 67 | 332 | 3.0 | 8.0 | 0.00 | 0.24 | 0.05 | 76 | 1012.1 |
| 20260831170130 | 67 | 285 | 3.0 | 8.0 | 0.00 | 0.24 | 0.05 | 76 | 1012.1 |
| 20260831165621 | 67 | 253 | 3.0 | 16.0 | 0.00 | 0.24 | 0.05 | 74 | 1012.0 |
| 20260831165111 | 67 | 306 | 6.0 | 16.0 | 0.00 | 0.24 | 0.05 | 73 | 1012.0 |
| 20260831164637 | 67 | 244 | 4.0 | 12.0 | 0.00 | 0.24 | 0.05 | 74 | 1011.9 |
| 20260831164113 | 67 | 5 | 5.0 | 13.0 | 0.00 | 0.24 | 0.05 | 73 | 1011.9 |
| 20260831163645 | 68 | 293 | 4.0 | 13.0 | 0.00 | 0.24 | 0.05 | 74 | 1011.8 |
| 20260831163113 | 68 | 275 | 3.0 | 11.0 | 0.00 | 0.24 | 0.05 | 75 | 1011.8 |
| 20260831162609 | 68 | 251 | 4.0 | 13.0 | 0.00 | 0.24 | 0.05 | 74 | 1011.8 |
| 20260831162117 | 68 | 153 | 5.0 | 13.0 | 0.00 | 0.24 | 0.05 | 75 | 1011.7 |
| 20260831161609 | 67 | 223 | 5.0 | 11.0 | 0.00 | 0.24 | 0.05 | 74 | 1011.6 |
| 20260831161116 | 68 | 198 | 4.0 | 10.0 | 0.00 | 0.24 | 0.05 | 73 | 1011.6 |
| 20260831160620 | 68 | 206 | 4.0 | 10.0 | 0.00 | 0.24 | 0.05 | 75 | 1011.6 |
| 20260831160105 | 68 | 267 | 4.0 | 9.0 | 0.00 | 0.24 | 0.05 | 75 | 1011.5 |
| 20260831155616 | 67 | 286 | 3.0 | 12.0 | 0.00 | 0.24 | 0.05 | 75 | 1011.4 |
| 20260831155133 | 67 | 244 | 3.0 | 18.0 | 0.00 | 0.24 | 0.05 | 75 | 1011.4 |
| 20260831154611 | 67 | 278 | 5.0 | 18.0 | 0.00 | 0.24 | 0.05 | 74 | 1011.4 |
| 20260831154118 | 67 | 167 | 4.0 | 12.0 | 0.00 | 0.24 | 0.05 | 74 | 1011.3 |
| 20260831153625 | 67 | 283 | 4.0 | 12.0 | 0.00 | 0.24 | 0.05 | 76 | 1011.3 |
| 20260831153119 | 67 | 302 | 5.0 | 14.0 | 0.00 | 0.24 | 0.05 | 73 | 1011.3 |
| 20260831152630 | 68 | 269 | 6.0 | 15.0 | 0.00 | 0.24 | 0.05 | 73 | 1011.3 |
| 20260831152115 | 68 | 291 | 6.0 | 15.0 | 0.00 | 0.24 | 0.05 | 73 | 1011.2 |
| 20260831151633 | 68 | 213 | 3.0 | 8.0 | 0.00 | 0.24 | 0.05 | 74 | 1011.1 |
| 20260831151111 | 67 | 286 | 3.0 | 13.0 | 0.00 | 0.24 | 0.05 | 74 | 1011.1 |
| 20260831150615 | 67 | 218 | 4.0 | 13.0 | 0.00 | 0.24 | 0.05 | 73 | 1011.1 |
| 20260831150130 | 67 | 223 | 5.0 | 11.0 | 0.00 | 0.24 | 0.05 | 74 | 1011.0 |
| 20260831145645 | 66 | 254 | 3.0 | 9.0 | 0.00 | 0.24 | 0.05 | 77 | 1010.9 |
| 20260831145137 | 66 | 238 | 3.0 | 12.0 | 0.00 | 0.24 | 0.05 | 77 | 1010.9 |
| 20260831144611 | 66 | 251 | 4.0 | 12.0 | 0.00 | 0.24 | 0.05 | 78 | 1010.9 |
| 20260831144106 | 66 | 313 | 3.0 | 8.0 | 0.00 | 0.24 | 0.05 | 78 | 1010.8 |
| 20260831143636 | 66 | 265 | 3.0 | 8.0 | 0.00 | 0.24 | 0.05 | 78 | 1010.7 |
| 20260831143140 | 66 | 301 | 3.0 | 11.0 | 0.00 | 0.24 | 0.05 | 78 | 1010.6 |
| 20260831142643 | 66 | 300 | 5.0 | 11.0 | 0.00 | 0.24 | 0.05 | 77 | 1010.5 |
| 20260831142128 | 66 | 205 | 3.0 | 15.0 | 0.00 | 0.24 | 0.05 | 78 | 1010.4 |
| 20260831141625 | 65 | 265 | 5.0 | 15.0 | 0.00 | 0.24 | 0.05 | 78 | 1010.4 |
| 20260831141117 | 66 | 285 | 5.0 | 11.0 | 0.00 | 0.24 | 0.05 | 76 | 1010.4 |
| 20260831140615 | 67 | 207 | 3.0 | 11.0 | 0.00 | 0.24 | 0.05 | 75 | 1010.2 |
| 20260831140134 | 67 | 224 | 4.0 | 11.0 | 0.00 | 0.24 | 0.05 | 73 | 1010.1 |
| 20260831135618 | 67 | 201 | 4.0 | 14.0 | 0.00 | 0.24 | 0.05 | 72 | 1010.0 |
| 20260831135124 | 68 | 227 | 4.0 | 14.0 | 0.00 | 0.24 | 0.05 | 71 | 1009.9 |
| 20260831134641 | 68 | 247 | 3.0 | 9.0 | 0.00 | 0.24 | 0.05 | 73 | 1009.8 |
| 20260831134117 | 68 | 270 | 3.0 | 10.0 | 0.00 | 0.24 | 0.05 | 71 | 1009.8 |
| 20260831133617 | 68 | 148 | 3.0 | 16.0 | 0.00 | 0.24 | 0.05 | 71 | 1009.8 |
| 20260831133113 | 69 | 254 | 4.0 | 16.0 | 0.00 | 0.24 | 0.05 | 69 | 1009.6 |
| 20260831132621 | 69 | 307 | 4.0 | 15.0 | 0.00 | 0.24 | 0.05 | 67 | 1009.6 |
| 20260831132123 | 70 | 264 | 4.0 | 16.0 | 0.00 | 0.24 | 0.05 | 65 | 1009.6 |
| 20260831131627 | 71 | 292 | 4.0 | 16.0 | 0.00 | 0.24 | 0.05 | 67 | 1009.4 |
| 20260831131128 | 70 | 296 | 4.0 | 11.0 | 0.00 | 0.24 | 0.05 | 67 | 1009.4 |
| 20260831130620 | 69 | 110 | 4.0 | 12.0 | 0.00 | 0.24 | 0.05 | 72 | 1009.3 |
| 20260831130114 | 70 | 196 | 5.0 | 12.0 | 0.04 | 0.24 | 0.05 | 67 | 1009.3 |
| 20260831125626 | 71 | 269 | 5.0 | 13.0 | 0.04 | 0.31 | 0.05 | 69 | 1009.1 |
| 20260831125111 | 70 | 160 | 5.0 | 13.0 | 0.04 | 0.31 | 0.05 | 70 | 1009.1 |
| 20260831124621 | 68 | 294 | 4.0 | 12.0 | 0.04 | 0.31 | 0.05 | 72 | 1009.0 |
| 20260831124121 | 68 | 162 | 4.0 | 10.0 | 0.04 | 0.31 | 0.05 | 70 | 1008.9 |
| 20260831123623 | 70 | 265 | 4.0 | 12.0 | 0.04 | 0.31 | 0.05 | 72 | 1009.0 |
| 20260831123106 | 70 | 191 | 6.0 | 12.0 | 0.04 | 0.31 | 0.05 | 75 | 1008.7 |
| 20260831122618 | 69 | 219 | 5.0 | 15.0 | 0.04 | 0.31 | 0.05 | 76 | 1008.6 |
| 20260831122110 | 69 | 252 | 4.0 | 11.0 | 0.04 | 0.31 | 0.05 | 81 | 1008.7 |
| 20260831121614 | 67 | 45 | 2.0 | 11.0 | 0.04 | 0.31 | 0.05 | 85 | 1008.6 |
| 20260831121122 | 66 | 238 | 5.0 | 11.0 | 0.04 | 0.31 | 0.05 | 84 | 1008.6 |
| 20260831120650 | 67 | 240 | 2.0 | 7.0 | 0.04 | 0.31 | 0.05 | 83 | 1008.6 |
| 20260831120146 | 66 | 265 | 3.0 | 7.0 | 0.00 | 0.28 | 0.04 | 84 | 1008.6 |
| 20260831115620 | 65 | 252 | 3.0 | 7.0 | 0.00 | 0.55 | 0.04 | 83 | 1008.7 |
| 20260831115145 | 64 | 290 | 2.0 | 10.0 | 0.00 | 0.55 | 0.04 | 83 | 1008.6 |
| 20260831114643 | 65 | 325 | 5.0 | 10.0 | 0.00 | 0.55 | 0.04 | 82 | 1008.6 |
| 20260831114112 | 65 | 198 | 5.0 | 11.0 | 0.00 | 0.55 | 0.04 | 82 | 1008.5 |
| 20260831113621 | 66 | 107 | 4.0 | 11.0 | 0.00 | 0.55 | 0.04 | 81 | 1008.5 |
| 20260831113108 | 67 | 306 | 4.0 | 11.0 | 0.00 | 0.55 | 0.04 | 83 | 1008.3 |
| 20260831112619 | 66 | 227 | 3.0 | 8.0 | 0.00 | 0.55 | 0.04 | 85 | 1008.3 |
| 20260831112127 | 65 | 182 | 4.0 | 12.0 | 0.00 | 0.55 | 0.04 | 87 | 1008.1 |
| 20260831111624 | 64 | 184 | 3.0 | 12.0 | 0.00 | 0.55 | 0.04 | 82 | 1008.1 |
| 20260831111133 | 65 | 294 | 4.0 | 15.0 | 0.00 | 0.55 | 0.04 | 78 | 1008.1 |